Вернуться в каталог

AIST-2T NO. 2

АктивенНаукаSSO
NORAD 67254·PAYLOAD·🇷🇺 Russia
Это название спутника еще не подтверждено официальными источниками.

Запущен Dec 28, 2025 с Vostochny Cosmodrome

Loading…

Ближайшие Пролёты (ближайшие 24 часа)

TLE

СвежийSource: Space-Track

Эпоха: Sep 14, 2026, 11:05 UTC

1 67254U 25313G   26257.46180957  .00021604  00000-0  26097-3 0  9990
2 67254  97.0765 334.8454 0004538 217.5195 142.5747 15.60735820 40530

Отслеживайте AIST-2T NO. 2 в реальном времени с AllMySat

Download on the App Store